GFSSGP_sfc_dewp_159.txt.gz
Dewpoint
63 54 45 43 39 40 37 39 42 40 40 47 47 43 44 51 47 45 63 64 66 68 70 70 71 71 71 71 70 69 69 67 66 65 66 66 65 64 63 63 62 62 61 61 62 61 60 61 65
57 48 45 40 37 35 37 40 39 42 43 52 50 49 49 50 57 60 61 65 67 69 69 69 70 71 71 71 70 70 69 67 66 66 65 65 64 63 65 62 62 61 60 61 62 60 62 63 63
50 45 42 37 35 36 38 41 41 43 49 45 48 54 53 53 58 60 62 66 68 69 69 70 70 71 71 71 70 70 69 68 66 66 66 65 64 63 63 61 61 62 61 62 62 63 63 64 64
49 47 44 36 33 35 36 41 44 45 45 48 50 49 55 58 58 61 66 67 68 69 69 69 70 70 70 70 70 69 69 69 67 66 67 65 64 63 65 62 61 60 60 61 62 63 64 62 64
48 45 41 40 40 41 38 37 45 44 44 45 46 48 52 59 63 64 66 67 67 68 69 69 69 70 70 70 69 69 68 68 68 67 68 66 65 65 65 62 62 61 60 60 62 63 62 61 62
45 43 39 38 41 41 39 40 40 42 45 44 48 50 52 59 62 64 66 66 67 67 69 69 67 68 69 69 69 68 68 67 67 67 68 67 65 65 65 63 63 60 60 59 61 62 60 61 61
44 41 39 39 41 39 39 41 41 42 45 45 51 46 53 58 61 64 65 66 67 68 68 69 69 67 66 67 67 67 67 67 67 65 66 67 66 65 65 64 64 61 61 60 62 60 59 60 60
45 43 41 41 39 39 39 41 42 43 44 49 49 43 45 57 62 63 64 65 66 67 68 68 68 68 67 67 64 65 66 66 65 64 63 63 63 64 64 63 64 63 62 62 62 60 59 59 59
45 36 37 40 40 38 41 39 40 43 45 49 52 50 55 60 62 63 63 64 64 65 67 67 67 67 66 66 65 63 63 64 63 62 61 60 60 62 62 61 63 64 64 64 62 61 60 59 59
40 36 35 39 40 39 41 41 42 39 39 40 46 56 59 60 61 61 62 62 63 63 64 66 67 66 66 65 66 65 64 64 63 62 61 60 59 59 61 60 61 63 63 64 63 62 61 57 55
43 38 38 39 41 42 42 41 42 40 40 41 43 45 58 59 59 59 60 61 62 63 64 65 64 65 66 66 66 65 64 64 62 62 61 60 59 59 59 61 61 63 60 63 63 62 61 57 55
42 43 41 44 44 44 43 43 42 41 41 42 42 44 56 58 58 58 59 59 60 61 63 64 65 64 65 66 65 65 64 63 62 61 60 60 59 59 59 59 60 61 62 62 62 61 61 59 56
42 42 43 43 43 42 43 42 42 42 43 43 43 44 48 52 56 58 59 59 60 60 61 62 64 65 65 65 65 64 64 63 62 61 60 59 59 59 58 58 59 60 60 61 60 60 60 59 58
42 42 43 43 42 42 41 40 41 41 43 43 43 43 42 42 46 52 55 57 59 60 61 61 63 64 65 64 64 64 64 64 63 62 61 59 59 58 58 58 58 58 60 60 60 59 59 58 58
44 41 42 42 42 41 41 38 39 41 40 40 39 40 40 41 41 42 47 52 55 58 60 61 61 63 64 64 64 64 64 64 63 62 62 60 59 58 57 57 57 58 59 59 59 59 58 57 56
41 40 36 38 42 41 39 31 37 39 39 40 40 40 41 42 42 42 42 44 48 54 57 59 60 61 63 63 64 64 64 64 63 63 62 61 60 59 58 57 57 57 58 58 58 58 58 57 56
39 33 35 36 41 40 40 36 38 40 40 39 40 41 42 41 41 41 43 43 44 46 51 56 59 61 61 63 63 64 64 63 63 63 62 61 60 59 59 58 58 57 57 57 58 57 57 57 56
33 34 35 35 36 39 38 37 38 38 39 40 41 41 41 40 39 40 42 44 44 44 47 53 56 60 61 61 62 63 63 63 63 62 62 62 61 60 59 59 58 58 57 57 57 57 57 56 56
33 32 33 35 38 38 36 36 37 39 40 40 40 39 39 39 40 42 42 42 43 44 44 46 50 56 59 60 60 61 60 61 62 62 62 62 61 60 60 59 59 58 57 57 57 57 56 56 56
35 33 32 35 38 39 37 37 39 39 38 39 39 39 38 38 39 38 37 38 38 40 42 44 46 50 55 58 59 59 60 61 61 61 62 62 62 61 60 60 59 58 58 58 57 57 56 56 55
36 35 34 32 36 37 36 32 32 33 38 39 39 39 38 37 35 35 35 35 37 39 41 40 42 44 49 55 58 59 59 59 60 60 61 62 62 62 61 60 59 59 58 57 57 57 56 55 55
35 37 36 36 35 30 33 27 29 31 31 33 33 34 34 33 34 34 34 34 36 37 40 43 44 44 45 55 58 59 58 57 58 59 60 60 61 61 61 60 59 59 58 58 58 57 57 56 55
35 39 37 36 34 35 32 32 29 31 31 32 33 32 33 35 35 34 34 35 35 36 37 39 38 38 46 54 57 59 58 59 58 58 59 59 60 60 60 61 60 59 59 58 58 57 57 56 56
38 37 35 37 36 29 28 29 25 27 29 30 30 31 34 33 34 34 35 34 32 34 35 38 35 34 37 38 45 54 58 58 58 58 58 59 59 59 59 60 60 59 59 59 59 58 58 57 56
37 34 27 27 27 21 27 29 25 28 29 29 28 31 33 34 33 33 31 30 31 32 33 34 34 32 33 36 36 39 41 48 57 58 59 58 58 58 58 58 59 59 59 59 59 58 57 57 56
36 33 23 15 18 18 28 27 25 28 30 33 33 32 33 33 33 32 31 30 28 29 30 30 34 31 30 32 34 36 38 41 42 44 50 58 59 59 59 59 58 58 58 59 58 58 58 58 57
34 33 30 26 18 20 22 24 23 29 29 32 30 32 33 32 32 31 31 29 27 26 27 27 29 31 28 28 32 33 35 37 39 39 40 41 43 45 55 59 59 58 58 58 58 58 58 58 57
33 33 29 30 22 19 19 20 18 22 23 26 31 33 33 30 29 28 28 28 27 25 23 26 25 27 27 26 29 31 32 34 35 33 35 37 38 40 42 46 52 59 59 58 58 58 58 58 58
31 30 29 27 25 16 13 16 23 20 23 26 30 34 30 28 26 25 25 25 24 22 20 21 22 23 26 24 27 30 30 32 30 29 31 33 34 35 36 39 42 47 52 59 58 58 58 57 57
31 29 28 22 21 23 20 14 21 24 25 25 31 29 27 25 23 21 21 22 22 19 19 17 21 20 23 21 25 27 27 29 26 25 27 31 30 31 33 36 38 40 44 49 54 58 57 57 57

GFSSGP_sfc_dewp_162.txt.gz
Dewpoint
57 51 45 43 38 38 37 38 40 39 40 46 44 42 41 49 46 43 63 64 64 65 67 69 71 71 70 70 69 69 68 67 64 65 67 66 64 63 64 62 63 62 62 62 61 61 59 64 65
51 47 45 42 35 32 36 39 38 42 47 49 49 48 43 45 55 59 60 65 64 65 67 67 70 71 70 70 69 69 68 67 66 64 66 65 64 63 62 61 61 61 60 60 60 60 62 63 64
50 45 42 39 38 34 37 39 40 45 47 45 48 52 50 50 56 58 62 65 65 65 67 68 70 70 70 70 69 69 68 66 65 66 65 64 63 63 63 61 62 60 62 63 60 62 62 64 63
48 47 42 36 37 37 39 41 43 44 45 48 48 45 54 58 57 60 63 65 64 65 67 69 70 71 70 70 69 68 68 66 65 66 66 65 63 62 63 61 62 61 60 59 62 62 62 63 63
48 45 38 39 39 39 38 40 45 43 44 44 46 45 50 58 62 62 64 64 64 65 67 68 70 70 71 70 69 69 68 67 66 64 67 65 64 63 62 61 60 61 59 61 60 63 61 62 62
42 42 36 35 37 38 38 40 40 43 45 44 44 45 51 59 61 63 64 64 64 65 67 67 67 68 69 70 69 69 68 68 67 66 67 66 65 64 63 62 61 59 59 59 59 62 60 61 61
43 40 39 39 38 37 38 41 40 42 44 45 49 42 51 57 61 64 64 64 65 65 66 67 67 67 66 67 67 67 68 67 67 65 67 67 66 65 65 64 64 60 59 59 61 61 60 60 59
45 43 41 41 37 37 39 41 43 43 45 49 49 43 45 57 62 64 64 64 64 65 65 66 67 67 66 66 65 65 66 66 66 65 64 64 64 64 64 63 63 63 63 61 62 61 59 60 59
44 36 37 40 39 38 40 37 40 42 45 48 51 49 55 60 63 63 63 64 64 65 66 66 66 66 66 66 64 63 64 65 64 63 62 61 59 61 61 61 62 64 64 63 63 61 60 60 59
41 35 35 41 40 39 40 40 40 37 39 41 44 52 58 60 61 61 61 60 63 63 65 65 66 65 66 65 65 65 64 64 63 62 61 59 60 60 59 59 61 63 63 64 64 62 62 58 54
43 33 37 39 40 42 41 40 41 39 38 39 41 44 53 57 58 59 58 59 59 61 63 65 65 66 66 65 65 65 64 64 64 63 62 61 59 60 59 60 60 60 59 58 60 60 57 55 54
38 41 39 41 44 43 41 42 40 40 39 41 42 43 48 50 52 53 53 55 57 60 61 63 64 65 66 66 65 65 64 64 63 63 62 61 60 60 59 58 60 61 59 59 60 59 58 57 56
40 42 44 44 43 43 43 42 41 41 42 43 42 44 45 46 46 46 49 52 54 56 58 60 63 65 65 66 65 65 65 64 63 63 62 61 60 60 59 58 58 59 59 59 59 59 58 58 56
41 42 42 43 42 42 41 40 41 40 42 42 43 43 42 41 41 42 43 44 46 48 51 53 59 62 63 65 65 65 65 64 64 63 63 62 60 60 59 59 58 58 58 58 58 58 58 58 57
44 40 42 42 41 39 41 36 38 37 41 40 39 40 41 41 41 40 40 42 43 45 47 50 53 58 61 62 64 64 65 64 64 64 64 63 61 60 59 59 58 58 58 58 58 58 58 58 57
39 38 28 30 40 39 37 18 36 39 39 38 39 38 40 40 39 39 40 40 41 43 44 47 49 54 57 59 61 62 64 64 64 64 64 64 62 61 60 60 59 59 58 58 57 57 57 57 56
41 27 30 32 41 38 36 28 36 39 39 38 36 36 37 38 38 38 38 41 41 41 42 43 46 51 54 57 59 61 62 63 63 63 63 63 63 62 61 60 60 60 59 58 57 57 56 55 55
25 27 32 25 36 40 38 35 37 39 37 35 35 36 36 37 37 38 40 39 39 41 42 43 44 47 51 54 57 59 60 62 62 62 63 63 62 62 62 61 61 60 59 59 58 57 57 57 55
29 30 25 34 36 36 33 33 33 36 37 37 35 34 35 35 37 38 36 37 39 41 41 41 41 43 46 52 55 57 57 60 60 62 62 62 62 62 62 62 61 61 60 59 59 58 57 57 57
34 32 31 34 37 37 33 32 35 36 37 37 35 33 34 36 36 33 35 37 39 41 43 44 43 42 43 49 53 54 54 56 58 59 61 61 62 62 61 61 61 60 59 59 59 59 58 57 57
37 34 31 30 35 36 34 28 28 31 34 36 37 37 37 35 32 33 35 36 39 39 41 41 45 48 47 45 48 52 56 57 57 58 60 61 61 62 61 61 61 61 60 59 59 59 58 57 57
34 37 36 35 34 29 31 26 27 28 28 33 34 35 33 34 33 34 34 35 36 37 39 37 39 42 46 53 50 53 53 53 53 55 58 60 61 61 61 61 61 60 60 59 59 59 58 57 56
34 38 37 37 35 34 32 31 25 31 29 29 29 33 34 34 34 33 33 33 34 36 38 36 35 36 40 44 53 56 56 57 57 57 59 60 61 61 61 61 61 60 60 60 59 59 58 58 57
39 37 37 37 34 30 28 28 18 23 24 25 29 32 34 33 33 32 32 32 32 34 35 35 31 31 35 38 40 44 47 51 54 54 58 59 59 60 60 60 60 61 60 60 60 59 58 58 57
38 33 28 28 29 22 24 26 23 26 27 29 26 33 33 33 31 30 29 29 29 30 31 31 31 28 30 34 35 37 40 42 43 43 44 47 49 53 56 59 60 60 60 60 60 59 59 59 58
37 32 25 19 20 18 28 25 23 29 26 30 32 32 33 31 31 29 28 27 27 28 28 28 30 27 26 29 32 33 36 37 35 36 37 38 40 40 42 44 48 57 59 59 59 60 59 59 59
34 34 30 25 24 23 20 25 26 30 29 30 32 33 32 31 31 30 28 26 25 24 27 25 26 29 25 27 29 30 31 33 30 31 32 33 34 33 35 38 40 44 47 57 59 59 59 59 59
33 32 30 32 23 20 17 18 15 24 26 28 31 32 31 31 28 26 25 24 23 21 21 24 21 24 22 24 28 28 29 30 27 27 28 31 31 30 31 33 36 38 40 44 49 56 59 58 59
31 30 30 28 29 20 15 12 18 19 22 24 27 31 31 30 27 25 24 22 20 19 18 21 18 21 19 22 25 25 27 25 23 24 25 27 29 28 29 30 32 34 35 38 41 44 48 52 57
32 28 29 23 24 24 19 16 21 22 22 23 27 33 31 29 24 21 21 22 19 17 16 19 17 18 18 20 22 21 24 20 20 21 23 25 25 26 27 28 29 31 33 35 37 39 43 45 48

GFSSGP_sfc_dewp_165.txt.gz
Dewpoint
56 49 47 43 38 37 34 36 37 37 40 43 44 36 36 42 45 47 61 62 62 64 67 68 71 71 70 69 69 68 66 65 64 66 66 65 63 63 62 61 63 61 62 59 60 60 64 64 64
50 48 46 39 35 33 35 36 37 41 44 46 45 44 36 43 52 58 59 63 63 64 65 66 70 71 70 69 69 68 68 66 64 66 66 65 62 63 60 60 61 60 60 61 58 61 63 63 64
47 47 40 36 34 34 36 37 39 43 44 43 44 45 43 46 53 56 62 63 63 63 64 68 70 71 70 69 69 68 67 67 66 64 66 64 62 63 62 60 60 59 59 59 58 62 62 64 63
46 45 39 35 36 38 37 39 41 42 44 44 45 44 50 56 55 59 61 63 63 63 64 68 70 71 70 69 68 68 68 66 65 67 65 65 63 61 61 60 59 59 59 60 60 62 62 63 63
43 42 37 37 37 37 39 41 42 41 42 42 43 42 48 56 59 61 62 62 62 63 64 67 70 71 71 70 69 68 68 67 66 65 67 65 64 62 61 61 58 59 58 58 60 62 62 63 63
39 40 35 35 37 37 38 40 40 41 42 42 42 43 50 57 58 61 62 61 62 62 64 67 67 69 70 70 70 69 68 68 67 65 67 67 66 64 63 61 60 59 58 58 59 62 62 61 62
40 37 36 36 36 36 37 39 37 41 41 43 45 41 51 54 60 62 62 61 62 63 64 65 66 67 67 68 68 68 68 68 68 67 68 67 66 66 65 64 63 61 59 58 58 62 61 61 61
41 39 36 35 35 37 39 40 42 42 44 47 47 42 46 56 61 62 62 62 62 63 63 63 65 65 65 66 65 66 66 67 66 66 66 66 65 64 64 63 64 63 63 62 61 61 61 60 61
43 32 32 36 35 37 39 38 41 43 44 46 48 48 53 58 60 61 61 61 62 62 63 63 64 65 65 65 64 64 64 65 64 64 62 61 60 59 60 60 62 64 65 64 63 62 61 61 61
36 32 29 39 39 38 39 38 39 38 42 43 45 52 56 58 58 58 58 57 60 61 62 63 64 64 64 64 64 65 64 64 63 62 62 60 60 58 59 59 61 63 63 64 64 63 62 60 53
37 27 35 38 40 40 39 39 40 38 37 39 40 45 51 54 55 54 54 54 55 57 60 63 64 64 64 64 64 65 65 65 64 63 63 62 60 60 59 61 60 61 59 59 60 61 60 56 54
33 37 35 39 42 41 40 40 38 39 38 41 42 43 45 46 48 48 48 49 51 54 56 59 62 63 64 65 64 64 65 65 64 64 63 63 62 62 60 59 59 62 60 60 59 59 59 57 56
34 34 40 41 43 42 42 39 38 39 38 42 42 43 43 44 44 42 42 44 45 46 48 52 58 61 63 64 65 64 63 64 64 63 63 62 61 62 60 60 59 59 59 59 59 59 58 58 57
31 33 40 43 42 42 41 39 41 38 39 40 41 41 43 42 41 41 41 40 39 41 43 45 49 56 59 63 65 64 63 63 64 64 63 63 62 62 61 60 60 59 59 59 58 58 58 58 58
38 36 38 39 40 38 40 36 36 38 39 39 39 38 38 40 40 39 38 37 39 39 41 42 46 49 54 58 61 62 63 63 64 64 63 63 63 62 60 61 60 59 59 59 58 58 57 57 57
34 30 26 25 34 37 37 21 22 29 33 36 33 34 36 37 36 35 34 36 38 40 41 42 43 46 51 54 56 58 60 62 64 64 63 63 63 62 62 61 61 61 60 59 58 58 57 57 56
33 20 22 18 30 31 35 22 20 33 35 34 32 32 31 32 33 33 35 39 39 39 40 41 43 44 47 51 53 56 58 60 61 62 63 63 63 63 62 62 62 61 61 60 59 58 57 57 56
20 26 20 21 30 31 30 27 25 35 33 33 32 30 30 31 30 31 39 37 38 40 41 41 42 42 44 48 52 55 57 59 60 62 62 62 62 63 62 62 61 61 60 59 59 59 58 58 57
24 20 18 23 30 33 30 28 30 31 34 32 32 32 31 30 30 37 36 37 40 41 43 43 43 43 42 45 49 53 54 57 58 60 61 61 62 63 63 62 62 61 61 60 59 59 58 58 57
30 25 22 25 31 34 27 27 29 30 31 32 32 30 28 27 31 35 35 38 40 41 42 42 44 46 46 43 47 51 52 52 54 56 58 61 61 62 62 62 62 61 61 61 60 60 59 58 58
33 28 23 24 33 35 32 29 29 29 30 30 32 34 33 34 35 33 35 37 39 40 40 39 41 45 46 52 46 46 50 53 54 56 58 59 62 62 62 62 61 61 61 61 60 60 59 58 58
30 32 32 30 32 24 30 24 23 26 28 33 34 35 35 35 33 34 34 35 37 39 39 37 39 41 44 48 53 50 51 51 52 54 56 59 61 61 61 62 62 61 61 61 60 60 59 59 57
32 36 35 35 34 32 29 29 23 23 24 25 27 34 32 34 33 33 34 35 35 37 38 36 34 36 40 43 47 52 54 56 57 57 59 60 60 61 60 62 61 61 61 60 60 60 59 59 58
38 37 36 36 33 28 27 24 17 20 24 25 28 28 33 34 33 33 33 33 33 35 35 35 31 31 35 36 38 42 45 47 47 47 49 51 50 51 49 49 54 60 61 60 60 60 60 59 58
38 33 28 27 27 21 20 22 20 21 23 23 25 30 34 33 32 31 31 30 31 32 32 30 30 27 30 34 33 35 38 38 37 37 39 40 43 44 42 43 47 49 51 56 61 60 60 59 59
35 30 23 16 17 13 25 20 18 25 25 24 26 31 33 33 32 31 30 29 29 29 29 28 30 27 26 29 30 30 33 32 31 31 32 33 34 34 34 36 39 41 44 47 51 58 60 60 59
33 33 28 26 27 22 21 23 25 29 27 25 31 30 33 32 31 30 29 27 25 26 27 24 26 27 24 27 30 29 31 29 27 28 29 30 30 28 30 32 34 36 38 41 43 49 51 54 58
32 31 30 33 24 19 15 15 14 23 24 26 30 32 32 32 31 30 27 26 24 22 23 23 21 22 21 24 26 25 28 25 24 26 27 28 28 28 28 30 31 32 34 36 39 43 44 46 50
31 30 30 28 30 21 18 15 16 17 21 22 26 32 32 32 31 28 26 23 21 21 19 21 19 20 20 22 24 23 24 21 22 23 23 25 26 26 27 27 29 30 31 33 35 38 41 38 40
32 29 30 26 25 25 22 19 19 19 19 20 21 28 30 32 30 26 25 23 21 18 17 19 17 18 19 20 21 21 20 19 20 20 21 23 23 24 25 25 27 28 29 31 34 35 34 35 36

GFSSGP_sfc_dewp_168.txt.gz
Dewpoint
61 49 49 47 43 41 36 38 37 40 42 43 40 36 44 49 49 52 61 62 64 65 68 70 71 71 70 69 69 68 68 65 65 67 66 65 64 63 62 63 62 62 59 60 60 63 65 65 66
57 50 50 46 40 36 35 37 40 42 44 45 45 41 41 49 56 58 60 62 64 65 66 68 70 71 71 70 70 69 68 65 66 67 66 64 63 62 60 60 61 60 62 58 60 62 64 64 64
53 46 47 42 39 37 36 38 41 43 44 44 43 42 45 50 54 58 62 62 63 63 66 68 70 71 71 70 70 69 69 67 65 66 65 64 63 63 62 61 60 59 59 57 60 63 63 64 64
44 49 43 39 38 38 37 39 41 42 43 43 44 46 51 56 57 60 62 62 62 63 67 69 70 71 71 70 69 69 68 67 66 65 65 64 64 64 64 61 61 60 60 60 62 63 63 63 63
44 45 41 39 37 38 40 41 41 41 41 42 42 46 51 57 59 61 61 62 62 64 67 69 70 70 70 70 69 69 69 67 67 67 66 66 65 65 64 62 60 60 57 58 60 62 62 63 63
43 41 38 38 37 37 39 41 41 41 41 42 43 47 52 56 59 61 61 61 62 63 67 68 67 69 70 70 70 69 69 69 68 66 67 67 66 66 64 63 61 60 58 59 59 60 62 61 62
44 42 39 38 37 37 38 39 39 41 42 44 44 47 52 56 60 61 61 61 61 63 65 67 68 68 67 68 68 68 68 68 68 67 68 67 66 66 66 64 64 62 60 59 59 61 61 60 61
44 41 39 37 35 37 39 41 42 43 45 46 47 45 51 57 60 61 61 61 61 62 63 64 66 67 67 67 66 66 66 66 66 66 65 65 65 64 64 63 64 64 63 63 63 62 61 60 60
45 37 35 37 37 38 39 39 42 44 44 47 49 51 55 59 60 60 61 61 61 62 62 63 64 65 65 66 65 64 64 64 64 64 62 62 64 62 61 61 62 64 64 64 64 63 62 61 61
40 35 34 40 39 38 38 39 39 40 43 45 50 53 57 58 59 59 59 59 60 61 62 63 63 64 65 64 65 65 65 64 64 63 62 61 61 61 60 60 60 62 63 64 64 64 63 60 57
40 35 37 39 41 40 40 40 40 38 39 42 47 50 54 55 55 54 54 53 55 59 61 63 63 64 64 63 64 65 65 65 64 63 63 62 60 61 59 61 60 60 59 61 62 62 61 59 56
36 36 35 41 44 42 40 40 39 39 40 42 43 46 49 50 51 51 49 48 50 54 56 60 63 63 64 65 64 64 64 64 64 63 63 63 62 61 60 60 61 61 60 60 59 60 58 59 56
37 34 38 40 44 42 43 42 39 39 40 42 42 44 43 44 45 43 43 44 44 45 48 52 58 61 63 64 64 64 64 65 64 64 63 63 62 61 61 60 59 59 60 60 59 59 58 58 57
35 33 40 43 42 42 42 40 40 40 40 41 41 42 42 43 43 41 41 41 40 41 41 43 46 54 59 64 64 64 64 64 64 64 63 63 63 62 61 60 60 59 59 59 58 58 58 58 58
38 36 37 40 41 40 41 39 38 39 38 38 39 41 40 41 40 40 40 39 37 40 41 42 43 46 50 58 64 64 64 63 64 63 64 63 63 62 61 61 60 60 59 58 58 58 57 57 57
36 33 30 33 37 38 38 31 32 36 36 37 38 37 36 38 39 38 37 35 39 40 40 42 43 44 48 51 55 59 61 63 63 63 63 63 63 62 62 61 60 60 60 59 58 58 57 57 56
34 24 25 24 31 32 37 31 27 29 32 32 33 34 33 34 33 33 34 39 38 39 40 41 43 44 45 48 52 55 57 60 62 63 63 63 62 62 63 62 61 61 61 60 59 58 58 56 56
26 24 23 22 27 32 31 31 31 33 33 32 31 30 30 30 30 32 37 38 39 41 43 43 44 43 44 45 49 53 56 58 60 61 62 62 63 63 62 63 62 62 61 60 60 59 59 58 57
24 26 25 19 28 32 31 27 27 28 34 33 33 33 32 31 32 37 37 39 40 42 43 43 44 46 47 45 47 51 53 56 58 60 61 61 61 62 63 63 63 63 62 61 60 60 59 59 59
31 27 23 23 29 32 31 28 26 26 28 31 33 31 31 32 31 35 37 39 41 41 40 40 42 45 47 51 49 48 51 53 55 57 59 61 61 62 63 63 62 62 62 62 61 61 60 60 59
33 31 25 23 31 33 33 31 30 29 27 29 30 31 32 32 33 34 36 39 39 40 38 38 41 43 46 48 52 46 48 51 53 55 57 59 61 62 62 62 62 62 62 61 61 60 60 59 59
32 33 31 29 30 27 31 25 25 24 26 27 29 31 32 34 34 35 36 37 38 39 37 36 37 39 41 43 48 54 54 54 55 55 57 59 59 60 61 61 62 62 61 61 60 60 60 59 58
32 33 32 32 32 31 29 27 26 26 26 29 32 34 35 36 33 34 35 36 37 37 37 34 33 34 37 38 40 45 47 50 49 47 49 51 52 51 48 50 52 57 61 61 60 60 59 59 59
37 36 36 35 35 30 29 27 23 23 23 24 28 33 35 34 34 34 34 34 34 35 34 33 29 30 34 34 35 37 39 38 38 38 41 42 43 43 37 39 43 47 50 51 56 60 60 60 59
37 35 29 26 27 21 22 26 23 23 23 26 28 30 34 34 33 32 32 32 32 31 31 31 29 27 30 33 31 33 33 32 32 33 35 35 35 34 32 34 37 39 42 44 48 51 56 59 59
36 34 26 18 21 18 23 20 19 28 26 24 25 33 34 33 33 32 31 30 30 30 28 28 31 26 27 30 30 31 32 31 30 30 30 31 32 31 31 32 34 35 37 38 41 46 48 49 52
34 33 30 25 23 22 22 23 25 28 26 28 31 33 33 33 32 31 30 28 28 28 26 24 26 25 25 27 28 28 29 26 26 28 28 29 29 27 29 30 31 33 35 37 38 41 43 44 44
33 33 29 29 18 16 18 18 18 25 27 26 31 31 33 33 32 30 29 26 24 24 25 21 23 22 23 25 26 25 25 23 24 25 25 26 26 26 28 28 29 31 32 34 36 39 38 38 40
31 31 31 30 28 21 17 16 17 19 21 26 26 32 33 32 32 30 28 25 24 21 23 20 21 21 22 24 24 24 23 22 23 23 23 24 25 25 26 27 28 29 30 32 34 34 34 34 35
30 29 30 26 25 26 24 22 23 21 19 20 25 31 33 33 32 29 26 23 21 20 19 18 19 20 20 21 23 21 20 20 21 21 22 23 23 24 24 26 27 28 29 31 31 31 31 32 32

GFSSGP_sfc_dewp_171.txt.gz
Dewpoint
63 57 51 44 39 37 35 36 41 42 42 42 43 51 52 53 53 50 61 65 66 68 70 70 70 70 69 68 68 68 67 66 67 66 65 65 64 63 62 63 64 62 60 61 63 65 65 65 66
60 55 47 42 37 34 34 40 41 43 44 44 44 46 47 53 58 60 60 65 67 68 69 70 70 71 70 69 69 69 67 66 67 66 65 64 64 62 60 60 62 62 60 60 62 64 64 65 65
52 52 43 38 38 35 36 40 41 43 44 43 41 46 50 52 58 60 62 65 66 66 68 69 70 71 70 70 70 69 68 67 67 66 64 63 64 62 63 62 62 62 59 59 61 63 63 63 63
43 46 43 37 36 37 38 40 42 42 42 43 47 50 54 58 58 61 62 63 65 66 67 69 70 71 70 70 69 68 68 67 66 66 64 64 65 64 63 62 62 61 62 61 63 63 63 63 64
43 42 39 37 37 40 41 41 42 41 41 43 47 50 54 58 61 62 62 62 66 67 68 68 70 70 70 70 69 69 68 67 67 67 66 65 64 65 63 61 61 60 58 59 61 63 62 63 64
39 38 36 36 36 38 39 39 41 40 42 46 49 51 53 59 60 61 61 62 66 67 68 68 67 68 69 70 69 69 69 68 67 66 67 66 65 65 64 62 61 60 57 59 59 63 62 61 62
41 39 37 36 36 37 38 39 41 42 43 44 47 50 54 59 60 61 61 61 65 67 67 68 68 68 67 68 68 68 68 68 68 67 67 67 66 66 65 65 64 62 59 59 59 60 61 60 61
42 38 35 37 35 37 38 41 42 44 44 47 49 50 52 58 61 61 61 61 62 63 66 67 67 68 68 67 65 66 66 66 66 66 65 65 64 64 65 63 64 64 63 63 63 63 61 60 60
42 33 32 35 36 37 40 40 41 44 46 50 52 53 57 60 61 60 60 60 61 62 63 65 66 67 67 67 66 64 64 64 64 64 62 63 64 63 61 62 63 65 64 64 64 64 63 62 61
36 31 36 39 39 38 39 39 40 43 45 49 52 57 58 59 60 60 60 60 60 61 62 63 64 64 65 65 66 66 65 64 64 63 63 62 63 62 62 60 61 62 63 64 65 65 63 60 58
36 33 37 41 42 40 39 39 39 42 43 48 50 55 57 58 59 59 59 60 60 61 62 63 63 63 63 63 65 66 66 65 64 63 62 62 61 60 59 60 60 60 59 61 63 63 62 60 58
34 34 36 43 43 41 39 40 39 39 40 45 51 54 55 55 55 54 53 52 54 56 60 63 63 63 64 64 64 63 63 64 65 64 63 63 61 60 60 59 60 59 59 59 60 59 60 60 59
35 35 39 43 43 42 42 40 39 39 41 43 44 46 50 52 52 47 43 43 44 47 50 57 62 63 63 64 64 64 63 63 63 63 63 64 62 61 60 60 59 60 60 59 59 59 59 58 58
36 37 38 42 42 42 41 41 40 39 41 41 42 42 43 42 43 41 40 41 41 40 40 42 44 54 62 63 64 64 64 64 63 64 64 63 63 62 61 60 60 59 59 60 59 59 58 58 57
38 34 37 40 41 41 41 39 39 39 39 40 41 41 41 42 41 40 40 39 39 39 41 41 42 43 48 59 63 64 64 63 64 64 63 63 63 62 62 61 60 60 59 58 58 58 57 57 57
35 33 32 35 39 39 37 31 35 39 39 38 38 40 40 39 39 39 39 38 39 39 39 41 43 44 45 47 54 64 64 64 62 63 63 63 63 63 62 62 61 61 60 59 58 58 57 57 56
33 25 26 26 33 36 36 33 33 31 35 37 37 38 37 35 38 38 37 38 38 40 42 43 44 44 44 45 48 52 56 60 62 63 63 62 62 62 63 63 62 62 61 60 59 58 58 57 57
27 28 23 24 22 33 34 34 34 32 33 32 33 33 31 32 31 34 37 39 41 43 43 43 45 46 47 45 46 50 53 56 59 62 63 63 63 63 63 63 63 63 62 62 61 60 59 59 58
26 27 25 25 23 30 30 30 31 30 31 32 31 31 31 32 32 37 39 40 42 41 41 42 43 45 47 49 46 47 51 54 56 58 62 62 61 60 61 63 63 63 62 62 62 61 60 60 59
31 28 25 23 33 31 31 31 32 30 28 33 32 33 33 33 32 36 39 40 41 38 39 40 42 43 46 48 50 48 47 52 54 57 60 61 60 61 61 61 62 62 62 61 61 61 60 60 60
33 31 27 24 30 32 32 29 31 32 31 28 33 34 34 32 32 36 38 39 39 37 36 38 39 40 41 42 52 52 50 53 56 57 57 57 57 58 60 61 62 62 61 61 61 61 60 59 59
32 34 32 30 29 25 31 23 27 26 26 28 27 29 30 32 34 36 37 38 38 36 35 34 35 36 36 38 45 49 51 52 51 51 52 52 50 46 48 51 52 55 60 60 60 60 60 59 58
33 34 33 32 30 30 29 27 27 28 25 27 27 29 31 33 34 36 36 37 37 36 33 31 32 34 34 35 37 39 40 40 39 40 41 41 41 38 37 40 44 45 49 51 52 54 59 59 59
37 35 35 34 33 28 28 27 25 23 22 26 29 32 34 34 35 35 35 35 35 34 32 29 29 31 33 32 34 33 32 32 33 34 36 37 36 34 33 35 38 40 42 43 45 49 52 53 58
35 33 26 24 26 21 25 27 23 25 25 25 27 29 34 34 33 33 33 33 32 31 31 29 28 29 31 32 32 31 30 30 30 31 33 33 33 32 31 33 34 35 37 39 41 45 46 48 50
33 31 25 18 21 21 24 25 24 27 28 27 28 33 33 33 32 32 32 31 30 29 28 29 27 26 29 30 30 30 28 30 30 29 30 30 30 30 30 31 32 33 35 36 39 42 40 42 43
35 32 31 25 21 20 21 23 25 27 25 28 31 33 33 32 32 32 30 30 30 28 25 27 24 25 26 26 27 26 24 25 26 26 27 28 27 26 29 30 31 32 34 35 38 38 37 38 39
35 34 30 30 18 13 18 19 19 25 25 26 32 33 33 33 31 30 29 28 28 27 22 24 22 23 25 25 25 23 23 24 24 25 25 26 26 27 27 28 30 31 32 33 34 35 35 35 36
32 31 32 28 27 17 16 17 20 20 26 25 27 32 33 32 31 29 28 25 24 24 21 21 22 22 23 24 25 23 23 23 23 23 24 24 25 25 26 28 29 29 31 31 31 31 32 32 33
31 30 31 26 24 26 24 22 22 19 21 24 26 30 33 33 31 30 27 25 22 21 22 19 21 21 21 23 23 21 21 21 21 21 22 24 23 25 25 26 27 28 29 29 29 28 28 28 30